Location: Observatoire
(46.1952°N, 5.3391°E)
Time: 03:39:14
(UTC+01:00)

Altair - Pass Details

Date: 23 February 2026
Orbit: 1502 x 1682 km, 47.2° (Epoch: 13 March)

Event Time Altitude Azimuth Distance (km) Brightness Sun altitude
Rises 12:13:26 0° 285° (WNW) 4,749 9.8 33.4°
Reaches altitude 10° 12:18:58 10° 259° (W) 3,802 9.7 33.6°
Maximum altitude 12:22:34 13° 237° (WSW) 3,614 9.9 33.7°
Drops below altitude 10° 12:26:13 10° 214° (SW) 3,849 10.4 33.8°
Sets 12:31:57 0° 189° (S) 4,868 11.1 33.9°
